TITAN 3C TRANSTAGE DEB, 3494

Orbit data source: Space-Track

TITAN 3C TRANSTAGE DEB, 3494 is space debris in LEO originally from a launch on Fri, 15 Oct 1965 UTC launched from the Air Force Eastern Test Range (AFETR). Debris objects in space refer to the collection of defunct objects orbiting the Earth. Examples of debris include non-operational satellites, rocket bodies, and fragments generated from explosions, collisions, or faulty payload assembly.

Loading next visibility...
Identifier
3494, 1965-082QQ
Orbit
LEO
Last TLE update
15 hours ago
Origin
Manufacturer
Unknown
Mission
Spacecraft
Bus & Motor
Unknown
Mass
Unknown
Launch date (UTC)
1965-10-15 (60 years ago)
Launch vehicle
Unknown
Launch site
Air Force Eastern Test Range (AFETR)
Object type
Payload
Rocket body
Debris
Shape & HBR
Unknown
Radar Cross Section
Small (<0.1 m²)

Expand to show TLE details & history

TLE from 15 hours ago
0 TITAN 3C TRANSTAGE DEB
1 03494U 65082QQ  25198.67141893  .00000424  00000-0  75201-4 0  9994
2 03494  31.8922 312.7729 0027506 323.5273  36.3495 14.61512412156462
Epoch: 2025-07-17T16:06Z
TLE epoch observation values (Epoch: 2025-07-17T16:06:50.595Z)
Latitude
0.00001°
Longitude
135.32823°
Altitude
671.29 km
Speed
7.532 km/s
True Right ascension
20h 51m 05s
True Declination
0° 00' 00"
Sunlit
Object was in full shadow at epoch
Visualization orbit readout
Latitude
26.94348°
Longitude
-174.04272°
Altitude
687.045 km
Speed
7.518 km/s
Apparent Right ascension
03h 18m 54s
Apparent Declination
-8° 12' 41"
Sunlit
Object is in daylight
Visualization observer readout
Local Sidereal Time
19:52:58
Azimuth
82.389° E
Elevation
-21.696°
Doppler factor
1
Orbital elements
Apogee altitude
711.37 km
Perigee altitude
672.477 km
Semi-major axis
7,070.061 km
Eccentricity
0.00275
Inclination
31.8922°
RAAN
312.7729°
Arg. of periapsis
323.5273°
True anomaly
36.53684°
Mean anomaly
36.3495°
Eccentric anomaly
36.44312°
Mean motion
3.65097 °/min
Orbital period
98.6 mins
BSTAR
0.000075201
Loading maneuver chart data...
Loading SW <> Apogee altitude chart data...
|